Terug naar catalogus

COSMOS 886 DEB

ActiefLEO
NORAD 9654·DEBRIS·🇷🇺 Russia

Gelanceerd Dec 27, 1976 vanaf Baikonur Cosmodrome

Loading…

Volgende Passages (komende 24 uur)

TLE

VersSource: Space-Track

Epoch: Sep 14, 2026, 06:14 UTC

1 09654U 76126L   26257.26029843  .00002328  00000-0  90809-3 0  9996
2 09654  65.7686 217.1950 0684991  59.8901 306.8244 13.47216420369496

Volg COSMOS 886 DEB in realtime met AllMySat

Download on the App Store